TimePDT,TemperatureF,Dew PointF,Humidity,Sea Level PressureIn,VisibilityMPH,Wind Direction,Wind SpeedMPH,Gust SpeedMPH,PrecipitationIn,Events,Conditions,WindDirDegrees,DateUTC
12:55 AM,45.1,45.1,100,30.03,10.0,South,6.9,-,N/A,,Clear,180,2012-10-30 07:55:00
1:55 AM,45.1,45.1,100,30.03,10.0,South,6.9,-,N/A,,Clear,180,2012-10-30 08:55:00
2:55 AM,44.6,44.6,100,30.03,10.0,South,10.4,-,N/A,,Clear,190,2012-10-30 09:55:00
3:55 AM,45.5,45.5,100,30.02,10.0,SW,3.5,-,N/A,,Clear,220,2012-10-30 10:55:00
4:55 AM,47.3,47.3,100,30.00,10.0,SSE,8.1,-,N/A,,Mostly Cloudy,150,2012-10-30 11:55:00
4:56 AM,48.2,48.2,100,29.99,10.0,SSE,8.1,-,N/A,Rain,Light Rain,150,2012-10-30 11:56:00
5:55 AM,46.8,46.8,100,30.00,10.0,South,3.5,-,0.00,Rain,Light Rain,170,2012-10-30 12:55:00
6:15 AM,46.4,46.4,100,30.00,10.0,Calm,Calm,-,N/A,,Overcast,0,2012-10-30 13:15:00
6:24 AM,46.4,46.4,100,29.99,10.0,ESE,4.6,-,N/A,Rain,Light Rain,110,2012-10-30 13:24:00
6:55 AM,46.0,46.0,100,29.98,10.0,ESE,3.5,-,0.01,Rain,Light Rain,110,2012-10-30 13:55:00
7:04 AM,46.4,46.4,100,29.98,10.0,ESE,3.5,-,N/A,,Mostly Cloudy,120,2012-10-30 14:04:00
7:55 AM,47.5,47.5,100,29.96,10.0,SE,6.9,-,0.00,,Overcast,140,2012-10-30 14:55:00
8:55 AM,49.3,49.3,100,29.95,10.0,SSE,4.6,-,N/A,,Overcast,150,2012-10-30 15:55:00
9:55 AM,50.7,50.7,100,29.95,10.0,SE,4.6,-,N/A,,Overcast,130,2012-10-30 16:55:00
10:55 AM,52.3,52.3,100,29.94,9.0,SE,8.1,-,N/A,,Overcast,130,2012-10-30 17:55:00
11:55 AM,54.7,54.7,100,29.94,10.0,South,8.1,-,N/A,,Overcast,180,2012-10-30 18:55:00
12:44 PM,55.4,53.6,94,29.93,10.0,South,8.1,-,N/A,Rain,Light Rain,180,2012-10-30 19:44:00
12:55 PM,55.2,55.2,100,29.93,10.0,South,12.7,-,0.00,Rain,Light Rain,190,2012-10-30 19:55:00
1:51 PM,53.6,53.6,100,29.92,10.0,South,9.2,-,N/A,,Overcast,180,2012-10-30 20:51:00
1:53 PM,53.6,53.6,100,29.92,10.0,South,9.2,-,N/A,,Light Drizzle,180,2012-10-30 20:53:00
1:55 PM,53.1,53.1,100,29.92,10.0,South,6.9,-,0.03,Rain,Light Rain,180,2012-10-30 20:55:00
2:26 PM,53.6,53.6,100,29.93,10.0,South,8.1,-,N/A,,Overcast,170,2012-10-30 21:26:00
2:30 PM,53.6,53.6,100,29.92,10.0,South,6.9,-,N/A,Rain,Light Rain,180,2012-10-30 21:30:00
2:55 PM,53.8,53.8,100,29.93,10.0,South,6.9,-,0.00,Rain,Light Rain,180,2012-10-30 21:55:00
3:55 PM,54.0,54.0,100,29.93,10.0,South,9.2,-,0.02,Rain,Light Rain,190,2012-10-30 22:55:00
4:55 PM,52.0,52.0,100,29.92,10.0,South,6.9,-,0.03,Rain,Light Rain,170,2012-10-30 23:55:00
5:55 PM,51.1,51.1,100,29.92,10.0,South,6.9,-,0.03,Rain,Light Rain,170,2012-10-31 00:55:00
6:55 PM,51.1,51.1,100,29.92,10.0,South,9.2,-,0.02,Rain,Light Rain,170,2012-10-31 01:55:00
7:04 PM,51.8,51.8,100,29.92,10.0,South,9.2,-,N/A,Rain,Light Rain,170,2012-10-31 02:04:00
7:07 PM,51.8,51.8,100,29.92,10.0,South,9.2,-,N/A,Rain,Light Rain,180,2012-10-31 02:07:00
7:09 PM,51.8,51.8,100,29.92,10.0,South,10.4,-,N/A,Rain,Light Rain,180,2012-10-31 02:09:00
7:19 PM,51.8,51.8,100,29.92,10.0,South,9.2,-,N/A,Rain,Light Rain,170,2012-10-31 02:19:00
7:55 PM,51.3,51.3,100,29.91,10.0,South,9.2,-,0.02,Rain,Light Rain,170,2012-10-31 02:55:00
8:03 PM,51.8,51.8,100,29.91,10.0,SSE,8.1,-,N/A,Rain,Light Rain,160,2012-10-31 03:03:00
8:55 PM,50.7,50.7,100,29.91,10.0,SSE,5.8,-,0.00,,Light Drizzle,160,2012-10-31 03:55:00
8:59 PM,50.0,50.0,100,29.91,10.0,SSE,5.8,-,N/A,,Overcast,160,2012-10-31 03:59:00
9:55 PM,50.7,50.7,100,29.92,10.0,SSE,6.9,-,0.00,,Scattered Clouds,150,2012-10-31 04:55:00
10:55 PM,50.7,50.7,100,29.91,10.0,ESE,3.5,-,N/A,,Mostly Cloudy,120,2012-10-31 05:55:00
11:55 PM,50.9,50.9,100,29.90,10.0,ESE,5.8,-,N/A,,Mostly Cloudy,110,2012-10-31 06:55:00